Flag for U.S.A. Weather past 2 weeks in Scottsdale, Arizona, U.S.A.

Now
96 °F

Clear.


Feels Like: 95 °F
Forecast: 77 / 96 °F
Wind: No wind

Location: Scottsdale Airport

Current Time: Sep 14, 2014 at 8:09:31 PM

Latest Report: Sep 14, 2014 at 6:53 PM


Visibility: 10 mi

Pressure: 29.69 "Hg

Humidity: 27%

Dew point: 57 °F

Location of ScottsdaleLocation

Historic Weather in Scottsdale — Graph

°F

Scottsdale temperature yesterday

Maximum temperature yesterday: 96 °F (at 2:53 PM)
Minimum temperature yesterday: 82 °F (at 4:53 AM)
Average temperature yesterday: 90 °F

Past Weeks' High & Low Weather Summary

 TemperatureHumidityPressure
High104 °F (Aug 31, 2:53 PM)100% (Sep 8, 2:57 AM)29.97 "Hg (Sep 8, 2:57 AM)
Low70 °F (Sep 8, 2:57 AM)11% (Aug 31, 5:53 PM)29.56 "Hg (Sep 3, 6:53 PM)
Average89 °F39%29.76 "Hg
* Reported Aug 30 6:53 PM — Sep 14 6:53 PM, Scottsdale, Weather by CustomWeather, © 2014

Note: Actual official high and low records may vary slightly from our data, if they occured in-between our weather recording intervals... More about our weather records

Advertising

Scottsdale weather history for previous 24 hours

 ConditionsComfort  
Time TempWeatherWind HumidityBarometerVisibility
6:53 PM
Sep 14
96 °FClear.No wind27%29.69 "Hg10 mi
5:53 PM97 °FSunny.3 mph25%29.69 "Hg10 mi
4:53 PM97 °FSunny.No wind25%29.69 "Hg10 mi
3:53 PM97 °FSunny.5 mph25%29.70 "Hg10 mi
2:53 PM97 °FSunny.No wind24%29.70 "Hg10 mi
1:53 PM95 °FSunny.3 mph27%29.73 "Hg10 mi
12:53 PM94 °FSunny.7 mph27%29.77 "Hg10 mi
11:53 AM94 °FSunny.10 mph28%29.78 "Hg10 mi
10:53 AM92 °FSunny.8 mph30%29.81 "Hg10 mi
9:53 AM90 °FSunny.9 mph33%29.82 "Hg10 mi
8:53 AM88 °FSunny.6 mph34%29.82 "Hg10 mi
7:53 AM85 °FSunny.3 mph40%29.81 "Hg10 mi
6:53 AM83 °FSunny.No wind43%29.81 "Hg9 mi
5:53 AM83 °FClear.No wind40%29.79 "Hg10 mi
4:53 AM84 °FClear.5 mph37%29.78 "Hg10 mi
3:53 AM85 °FClear.7 mph36%29.77 "Hg10 mi
2:53 AM86 °FClear.6 mph35%29.78 "Hg10 mi
1:53 AM87 °FClear.10 mph32%29.77 "Hg10 mi
12:53 AM88 °FClear.9 mph31%29.77 "Hg10 mi
11:53 PM
Sep 13
89 °FClear.12 mph30%29.77 "Hg10 mi
10:53 PM89 °FClear.12 mph30%29.76 "Hg10 mi
9:53 PM90 °FClear.8 mph29%29.75 "Hg10 mi
8:53 PM91 °FClear.5 mph28%29.74 "Hg10 mi
Weather by CustomWeather, © 2014

See weather overviewHow to use our weather pages